User: anonymous   Login
Location: Caltech
(34.1382°N, 118.1253°W)
Time: 01:53:05
(UTC-08:00)
Language:

GPS 2-04 Rocket1 - Orbit

View from above orbital plane
View from above orbital plane
View from above satellite
View from above satellite

Ground track
Ground track

The orbit data is extracted from the following two-line orbital elements,

1 20303U 89085B   17059.16563540  .00002545  00000-0  92024-4 0  9997
2 20303  35.6319   0.1297 0109382 288.1224  70.7616 15.22804505483910
Epoch (UTC): 28 February 2017 03:58:30
Eccentricity: 0.0109382
inclination: 35.6319°
perigee height: 422 km
apogee height: 572 km
right ascension of ascending node: 0.1297°
argument of perigee: 288.1224°
revolutions per day: 15.22804505
mean anomaly at epoch: 70.7616°
orbit number at epoch: 48391

The dashed part of the orbit path shows where the satellite is in the earth's shadow,  

DLR